Falfurrias, TX

8:17 PM CST on November 13, 2019 (GMT -0600)
Falfurrias

Weather History for KBKS - September, 2019

Change the Weather History Date:

Friday, September 6, 2019

  Actual Average (WUND) Record (WUND)
Temperature  
Mean Temperature 88 °F -  
Max Temperature 98 °F - - (-1)
Min Temperature 77 °F - - (-1)
Cooling Degree Days 22    
Growing Degree Days 38 (Base 50)    
Moisture  
Dew Point 75 °F    
Average Humidity 73    
Maximum Humidity 93    
Minimum Humidity 44    
Precipitation  
Precipitation 0.00 in - - ()
Sea Level Pressure  
Sea Level Pressure 30.01 in    
Wind  
Wind Speed 2 mph ()    
Max Wind Speed 10 mph    
Max Gust Speed -    
Visibility 8.7 miles    
Events      
Averages and records for this station are not official NWS values.
T = Trace of Precipitation, MM = Missing Value Source: Averaged Metar Reports

Daily Weather History Graph

Daily Weather History Graph

Search for Another Location

Airport or City:

Astronomy

Sep. 06, 2019 Rise Set
Actual Time 7:13 AM CDT 7:47 PM CDT
Civil Twilight 6:50 AM CDT 8:10 PM CDT
Nautical Twilight 6:22 AM CDT 8:38 PM CDT
Astronomical Twilight 5:54 AM CDT 9:06 PM CDT
Moon 2:43 PM CDT (9/6) 12:43 AM CDT (9/6)
Length of Visible Light 13h 20m
Length of Day
12h 33m
First Quarter, 56% of the Moon is Illuminated
Sep 6
First Quarter
Sep 13
Full
Sep 21
Last Quarter
Sep 28
New
Oct 5
First Quarter

Hourly Weather History & Observations

Time (CDT) Temp. Heat Index Dew Point Humidity Pressure Visibility Wind Dir Wind Speed Gust Speed Precip Events Conditions
12:15 AM 80.6 °F 87.1 °F 77.0 °F 89% 30.03 in 10.0 mi Calm Calm - N/A   Clear
12:35 AM 80.4 °F 86.6 °F 76.8 °F 89% 30.03 in 10.0 mi Calm Calm - N/A   Clear
12:55 AM 80.1 °F 85.7 °F 76.6 °F 89% 30.03 in 10.0 mi Calm Calm - N/A   Clear
1:15 AM 79.9 °F - 76.8 °F 90% 30.03 in 10.0 mi Calm Calm - N/A   Clear
1:35 AM 79.9 °F - 76.6 °F 90% 30.03 in 10.0 mi Calm Calm - N/A   Clear
1:55 AM 79.7 °F - 76.5 °F 90% 30.03 in 10.0 mi Calm Calm - N/A   Clear
2:15 AM 79.3 °F - 76.3 °F 90% 30.03 in 10.0 mi Calm Calm - N/A   Clear
2:35 AM 79.0 °F - 76.1 °F 91% 30.03 in 7.0 mi East 3.5 mph - N/A   Clear
2:55 AM 78.8 °F - 76.1 °F 91% 30.03 in 7.0 mi East 3.5 mph - N/A   Scattered Clouds
3:15 AM 78.8 °F - 76.1 °F 91% 30.03 in 7.0 mi Calm Calm - N/A   Scattered Clouds
3:35 AM 78.8 °F - 76.1 °F 91% 30.02 in 7.0 mi Calm Calm - N/A   Clear
3:55 AM 78.4 °F - 75.7 °F 91% 30.02 in 7.0 mi Calm Calm - N/A   Clear
4:15 AM 78.4 °F - 75.7 °F 91% 30.02 in 7.0 mi Calm Calm - N/A   Clear
4:35 AM 78.8 °F - 76.1 °F 91% 30.02 in 10.0 mi Calm Calm - N/A   Clear
4:55 AM 78.4 °F - 75.6 °F 91% 30.02 in 7.0 mi Calm Calm - N/A   Clear
5:15 AM 78.1 °F - 75.4 °F 91% 30.01 in 7.0 mi Calm Calm - N/A   Clear
5:35 AM 78.1 °F - 75.4 °F 91% 30.01 in 7.0 mi Calm Calm - N/A   Clear
5:55 AM 78.1 °F - 75.4 °F 91% 30.01 in 7.0 mi Calm Calm - N/A   Clear
6:15 AM 77.9 °F - 75.4 °F 92% 30.01 in 7.0 mi Calm Calm - N/A   Clear
6:35 AM 77.9 °F - 75.2 °F 91% 30.01 in 5.0 mi Calm Calm - N/A   Clear
6:55 AM 77.5 °F - 75.0 °F 92% 30.02 in 5.0 mi Calm Calm - N/A   Clear
7:15 AM 77.5 °F - 75.2 °F 92% 30.02 in 7.0 mi East 3.5 mph - N/A   Mostly Cloudy
7:35 AM 77.9 °F - 75.4 °F 92% 30.03 in 7.0 mi Calm Calm - N/A   Overcast
7:55 AM 78.6 °F - 76.1 °F 92% 30.04 in 7.0 mi East 3.5 mph - N/A   Overcast
8:15 AM 79.0 °F - 76.5 °F 92% 30.05 in 4.0 mi Calm Calm - N/A   Overcast
8:35 AM 79.9 °F - 77.4 °F 92% 30.05 in 1.0 mi Calm Calm - N/A   Overcast
8:55 AM 80.1 °F 86.3 °F 77.7 °F 93% 30.06 in 0.2 mi Calm Calm - N/A   Overcast
9:15 AM 80.8 °F 88.5 °F 78.4 °F 93% 30.06 in 0.8 mi NNE 3.5 mph - N/A   Overcast
9:35 AM 82.0 °F 91.6 °F 79.0 °F 90% 30.06 in 5.0 mi Calm Calm - N/A   Mostly Cloudy
9:55 AM 84.4 °F 94.2 °F 77.0 °F 78% 30.07 in 10.0 mi NE 4.6 mph - N/A   Mostly Cloudy
10:15 AM 87.1 °F 97.8 °F 76.1 °F 70% 30.07 in 10.0 mi East 3.5 mph - N/A   Scattered Clouds
10:35 AM 88.3 °F 98.4 °F 75.4 °F 65% 30.07 in 10.0 mi NE 4.6 mph - N/A   Mostly Cloudy
10:55 AM 88.9 °F 98.6 °F 75.0 °F 63% 30.07 in 10.0 mi ENE 5.8 mph - N/A   Mostly Cloudy
11:15 AM - - - N/A% 30.07 in - ESE 4.6 mph - N/A   Unknown
11:35 AM 91.4 °F 100.1 °F 73.4 °F 55% 30.07 in 10.0 mi East 5.8 mph - N/A   Scattered Clouds
11:55 AM 91.8 °F 100.3 °F 73.2 °F 54% 30.07 in 10.0 mi ENE 4.6 mph - N/A   Scattered Clouds
12:15 PM 91.0 °F 99.3 °F 73.0 °F 55% 30.07 in 10.0 mi Calm Calm - N/A   Mostly Cloudy
12:35 PM 93.2 °F 102.4 °F 73.2 °F 52% 30.06 in 10.0 mi ENE 5.8 mph - N/A   Mostly Cloudy
12:55 PM 91.2 °F 98.5 °F 72.0 °F 53% 30.05 in 10.0 mi Calm Calm - N/A   Overcast
1:15 PM 93.6 °F 101.9 °F 72.5 °F 50% 30.04 in 10.0 mi East 8.1 mph - N/A   Mostly Cloudy
1:35 PM 94.8 °F 103.4 °F 72.1 °F 48% 30.03 in 10.0 mi SE 5.8 mph - N/A   Scattered Clouds
1:55 PM 94.6 °F 103.0 °F 72.1 °F 48% 30.02 in 10.0 mi ESE 5.8 mph - N/A   Scattered Clouds
2:15 PM 95.2 °F 102.9 °F 71.2 °F 46% 30.01 in 10.0 mi East 5.8 mph - N/A   Scattered Clouds
2:35 PM 96.3 °F 103.9 °F 70.9 °F 44% 30.00 in 10.0 mi East 6.9 mph - N/A   Scattered Clouds
2:55 PM 96.3 °F 103.9 °F 71.2 °F 44% 29.98 in 10.0 mi East 4.6 mph - N/A   Scattered Clouds
3:15 PM 97.0 °F 106.2 °F 72.1 °F 45% 29.97 in 10.0 mi East 8.1 mph - N/A   Scattered Clouds
3:35 PM 98.1 °F 108.0 °F 72.5 °F 44% 29.96 in 10.0 mi ENE 9.2 mph - N/A   Scattered Clouds
3:55 PM 95.2 °F 104.9 °F 73.4 °F 49% 29.96 in 10.0 mi ENE 10.4 mph - N/A   Scattered Clouds
4:15 PM 96.6 °F 106.1 °F 72.7 °F 46% 29.95 in 10.0 mi East 9.2 mph - N/A   Scattered Clouds
4:35 PM 94.3 °F 104.9 °F 73.9 °F 52% 29.94 in 10.0 mi ESE 9.2 mph - N/A   Scattered Clouds
4:55 PM 96.1 °F 105.6 °F 72.9 °F 47% 29.94 in 10.0 mi East 9.2 mph - N/A   Scattered Clouds
5:15 PM 95.2 °F 104.2 °F 72.9 °F 48% 29.95 in 10.0 mi East 9.2 mph - N/A   Scattered Clouds
5:35 PM 94.6 °F 103.7 °F 72.7 °F 49% 29.95 in 10.0 mi East 9.2 mph - N/A   Clear
5:55 PM 94.6 °F 103.7 °F 72.7 °F 49% 29.95 in 10.0 mi East 9.2 mph - N/A   Clear
6:10 PM 94.1 °F 103.1 °F 72.9 °F 50% 29.95 in 10.0 mi East 10.4 mph - N/A   Clear
6:35 PM 92.8 °F 101.5 °F 72.9 °F 52% 29.96 in 10.0 mi ESE 10.4 mph - N/A   Clear
6:55 PM 91.9 °F 100.1 °F 72.5 °F 53% 29.96 in 10.0 mi ESE 10.4 mph - N/A   Clear
7:15 PM 90.5 °F 99.2 °F 73.4 °F 57% 29.96 in 10.0 mi East 9.2 mph - N/A   Clear
7:35 PM 89.1 °F 97.5 °F 73.4 °F 60% 29.97 in 10.0 mi ESE 5.8 mph - N/A   Clear
7:55 PM 87.8 °F 96.1 °F 73.8 °F 63% 29.97 in 10.0 mi East 5.8 mph - N/A   Clear
8:15 PM 86.9 °F 95.4 °F 74.3 °F 66% 29.98 in 10.0 mi East 9.2 mph - N/A   Clear
8:35 PM 86.0 °F 94.6 °F 74.7 °F 69% 29.98 in 10.0 mi Calm Calm - N/A   Clear
8:55 PM 85.1 °F 93.7 °F 75.0 °F 72% 29.99 in 10.0 mi ESE 5.8 mph - N/A   Clear
9:15 PM 84.4 °F 92.7 °F 75.4 °F 74% 30.00 in 10.0 mi ESE 5.8 mph - N/A   Clear
9:35 PM 83.8 °F 92.5 °F 76.1 °F 77% 30.01 in 10.0 mi ESE 5.8 mph - N/A   Clear
9:55 PM 83.5 °F 92.2 °F 76.5 °F 79% 30.01 in 10.0 mi Calm Calm - N/A   Clear
10:15 PM 83.3 °F 92.1 °F 76.5 °F 80% 30.02 in 10.0 mi SE 3.5 mph - N/A   Scattered Clouds
10:35 PM 82.8 °F 91.0 °F 76.5 °F 81% 30.02 in 10.0 mi ESE 5.8 mph - N/A   Clear
10:55 PM 82.6 °F 90.8 °F 76.6 °F 82% 30.02 in 10.0 mi SE 5.8 mph - N/A   Clear
11:15 PM 82.4 °F 90.6 °F 76.6 °F 83% 30.02 in 10.0 mi Calm Calm - N/A   Clear
11:35 PM 81.9 °F 89.5 °F 76.6 °F 84% 30.02 in 10.0 mi SE 3.5 mph - N/A   Clear
11:55 PM 81.7 °F 89.2 °F 76.6 °F 85% 30.02 in 10.0 mi SE 4.6 mph - N/A   Clear